Wind_Speed
16 17 17 17 17 18 18 18 18 18 18 18 18 18 18 19 20 20 20 20 20 21 21 21 21 20 19 19 19 19 19 20 19 21 24 17 13 15 16 14 12 10 13 17 17 16 24 26 24 24 22 18 14 13 15 8 5 7 3 3 3 3 2 2 3 1 1 2 5 14 15 12 9 10 10 9 7 11 14 6 9 11 4 9 14 24 35 32
17 17 18 18 18 18 18 18 19 19 19 19 19 19 19 19 19 20 20 21 21 21 21 22 21 21 20 18 19 19 20 20 21 24 23 16 16 18 16 17 19 18 15 16 19 21 25 30 28 26 22 14 10 12 13 9 8 8 3 3 4 3 2 2 3 2 2 3 3 13 16 13 12 14 13 9 8 13 12 7 10 9 8 12 16 29 34 31
19 19 19 19 19 19 19 19 19 19 19 20 20 20 20 20 19 19 20 20 21 21 22 22 21 21 20 19 18 18 19 20 23 25 17 12 13 13 15 19 21 22 21 17 17 21 25 29 30 25 19 11 9 12 12 10 10 9 5 4 5 5 5 5 7 7 6 4 3 11 13 12 12 15 14 10 10 13 12 11 14 12 15 18 21 32 34 30
20 20 21 21 21 22 22 21 21 21 21 21 21 21 21 21 21 21 20 20 20 21 22 22 21 21 20 19 17 16 16 17 18 14 5 5 6 6 7 12 18 20 20 18 15 17 22 27 29 24 17 9 9 11 11 12 9 7 7 6 3 3 6 6 7 9 10 9 7 9 11 11 12 14 13 12 10 9 13 18 21 22 24 23 26 33 33 31
20 21 21 21 22 22 22 22 23 23 23 23 22 22 22 22 22 22 21 21 20 20 21 22 21 20 20 18 17 14 10 8 5 5 7 8 4 3 3 4 12 17 19 17 16 18 23 28 27 20 14 8 10 10 11 16 11 5 9 11 7 4 5 5 4 6 8 8 6 10 11 10 13 13 15 17 11 7 14 24 23 25 30 29 32 35 33 32
21 21 21 21 22 22 22 22 22 23 23 23 24 24 24 23 23 23 23 22 21 21 20 20 21 20 20 17 17 13 6 5 3 8 9 4 4 6 6 5 8 15 20 19 21 25 27 30 26 17 12 8 11 10 8 17 15 7 9 12 12 11 11 8 4 6 7 4 6 10 11 12 15 12 16 21 16 7 8 19 22 23 29 30 35 38 35 34
21 21 21 21 22 22 22 22 22 23 23 23 24 25 25 25 24 24 23 23 22 22 21 20 19 20 20 16 16 12 11 17 12 10 9 7 11 12 10 8 9 15 23 24 26 31 32 31 25 17 12 6 9 11 6 14 17 11 9 10 11 13 17 14 10 12 11 9 8 9 11 14 17 12 15 22 19 10 3 11 24 24 27 29 35 39 37 36
21 21 21 22 22 22 22 22 23 23 23 24 24 25 25 25 25 25 24 23 22 22 21 20 18 19 19 16 15 11 17 24 13 9 14 14 14 13 12 9 10 17 26 29 30 34 33 31 25 17 12 7 6 11 9 8 13 15 12 9 9 12 17 17 15 16 13 13 10 10 13 17 22 13 14 22 19 14 5 9 24 26 27 29 32 38 37 35
21 22 22 22 23 23 23 23 23 23 23 24 25 26 26 25 26 26 25 23 21 21 22 20 18 18 17 16 13 10 20 24 16 18 20 17 15 12 12 9 11 21 28 30 32 34 33 29 27 19 11 10 7 9 13 9 7 13 15 11 10 14 16 15 16 17 13 12 9 12 15 18 20 12 11 19 19 17 10 12 23 27 30 28 28 36 38 37
22 23 23 23 23 24 24 24 24 23 23 24 25 26 26 26 25 25 25 24 22 21 20 19 19 18 17 16 10 7 15 14 9 13 13 11 11 9 9 6 11 24 30 31 32 33 32 28 30 22 8 10 9 6 12 11 5 7 13 15 16 18 18 16 18 19 12 10 13 14 15 15 16 11 10 13 20 21 14 17 24 28 31 28 27 32 36 37
23 23 23 24 24 25 25 25 25 24 24 24 24 26 26 25 24 24 24 23 21 19 19 19 18 18 18 16 13 11 14 9 4 4 5 5 10 7 5 4 10 24 31 33 32 30 29 26 30 24 6 7 11 7 10 13 10 7 7 11 15 15 17 16 18 18 9 8 15 17 11 8 13 13 12 14 22 24 19 22 26 29 30 28 27 28 29 33
24 24 24 25 25 25 25 25 25 24 24 24 24 25 25 24 23 22 23 21 20 17 17 18 17 18 17 18 25 22 14 10 9 9 7 5 9 9 6 3 8 21 28 30 29 26 24 22 27 23 7 6 9 5 8 12 14 12 8 9 10 9 12 13 15 14 8 7 12 14 6 6 13 14 13 18 23 22 22 24 25 27 28 27 27 27 26 27
27 27 27 27 27 26 26 26 25 24 24 23 24 25 24 22 21 20 20 19 18 15 15 16 17 18 15 16 24 21 15 14 14 14 11 7 7 5 4 3 8 19 24 25 24 22 22 22 26 24 11 7 6 3 2 4 8 10 7 7 7 7 9 8 9 9 9 7 10 15 5 6 16 15 15 22 25 23 22 23 24 25 25 25 26 26 26 26
30 30 30 30 30 29 28 28 27 26 23 23 23 24 22 19 18 18 17 17 15 13 12 13 15 16 17 19 19 13 14 19 21 21 17 12 10 7 3 3 9 19 23 22 20 21 23 22 24 22 12 7 4 2 2 1 3 4 3 4 4 6 5 2 1 4 6 5 14 16 7 7 10 13 18 23 28 27 23 23 24 24 25 25 25 26 26 27
30 31 31 31 32 31 30 30 29 27 24 23 22 21 19 16 15 15 14 14 13 11 8 9 13 14 13 19 20 14 14 19 24 24 21 19 17 15 13 8 12 19 23 21 16 19 23 21 21 16 7 7 5 3 4 3 2 2 4 5 3 5 5 2 1 5 4 3 14 14 6 5 4 12 20 23 28 28 23 23 24 24 25 25 25 25 26 27
30 30 31 31 32 32 31 31 30 28 25 21 20 18 15 13 14 14 14 12 11 10 5 5 12 13 7 11 14 14 14 16 20 21 23 24 22 20 17 11 14 19 22 21 13 13 20 19 16 12 7 6 6 4 3 4 4 3 5 5 3 5 4 3 1 4 4 3 11 13 7 4 1 11 21 23 26 25 22 22 24 25 25 26 25 25 25 26
30 30 31 32 32 31 31 31 30 28 25 20 18 16 13 12 12 14 14 12 10 9 5 2 7 9 9 8 8 10 10 12 14 15 18 22 23 21 17 14 16 20 22 21 13 10 16 16 10 9 7 5 5 5 5 8 8 4 4 5 5 5 4 4 1 1 2 5 9 13 11 5 2 9 18 22 25 24 21 22 24 25 25 25 25 25 25 26
30 31 32 32 33 32 31 31 30 28 23 18 17 17 14 12 11 13 15 13 11 7 5 3 8 3 9 12 10 6 5 6 9 11 12 16 22 23 20 17 17 21 19 15 12 11 13 11 7 5 5 7 7 8 9 7 7 7 6 5 5 6 7 7 4 2 1 5 7 11 13 10 3 8 15 20 24 24 21 21 23 24 24 24 25 25 25 27
30 30 32 33 33 33 31 31 30 26 21 17 17 16 12 10 9 10 11 11 10 6 5 6 12 5 3 6 10 10 7 5 7 8 11 14 18 21 21 19 19 23 17 9 10 13 11 6 6 8 7 10 10 11 11 2 4 9 8 7 6 6 8 7 3 2 2 5 8 10 13 13 7 9 13 17 21 21 18 18 20 21 22 23 24 25 26 28
29 30 31 33 33 34 32 31 30 23 20 19 18 14 9 10 7 5 12 19 17 16 16 16 20 19 12 6 7 9 9 9 9 7 9 13 17 20 20 19 19 19 13 9 10 12 12 7 8 11 9 10 11 12 11 2 2 7 8 8 8 8 8 5 2 2 1 4 8 9 12 14 9 9 12 16 18 17 16 17 19 21 23 24 25 27 28 29
29 29 31 32 33 34 32 31 28 19 18 21 17 10 10 11 7 7 19 25 21 19 24 28 29 32 32 24 16 11 8 8 12 12 9 13 19 19 19 20 15 10 9 11 10 8 10 11 12 12 8 9 11 11 11 8 6 6 6 7 7 8 8 5 4 6 3 3 7 7 10 13 9 8 12 16 17 17 19 21 21 24 24 25 26 27 27 25
30 30 31 31 32 33 32 29 23 16 19 19 12 10 13 13 11 9 13 17 25 26 23 27 30 36 40 36 32 27 16 11 14 17 12 14 21 18 16 17 12 8 10 11 8 7 9 13 13 12 9 9 11 12 13 14 12 8 7 7 7 7 5 6 6 6 5 4 6 6 8 10 6 7 12 16 17 19 24 25 24 26 25 25 27 27 26 24
30 31 32 31 31 32 32 27 18 17 20 14 6 12 16 17 16 11 8 10 25 30 26 28 30 35 40 36 34 31 21 15 16 20 19 18 20 19 16 15 12 10 12 13 12 9 9 10 11 14 11 12 11 11 14 13 12 11 9 9 9 7 5 6 3 1 3 4 5 6 7 7 3 5 9 15 18 18 22 23 20 21 24 26 27 26 25 26
30 31 31 32 31 31 31 24 16 20 20 9 7 15 20 21 18 14 7 8 14 19 21 22 21 27 31 27 24 26 26 20 16 21 26 23 19 17 16 14 13 11 12 17 18 14 8 2 11 16 14 16 13 10 13 11 9 12 12 12 11 8 7 6 1 3 5 5 6 5 7 6 5 8 8 11 15 15 17 20 18 19 23 23 21 22 24 27
31 31 30 31 30 30 30 21 18 24 15 5 12 20 21 19 17 13 6 5 7 9 9 8 10 16 16 13 14 20 20 19 23 27 25 27 25 15 10 12 11 11 15 18 15 14 9 3 12 17 15 18 16 11 14 13 9 10 14 15 11 7 6 4 1 4 6 6 4 3 7 5 4 8 8 8 11 14 16 18 20 21 23 23 22 23 25 27
32 31 30 29 29 31 28 20 22 26 13 6 17 22 19 17 16 11 3 3 4 4 1 1 4 4 3 9 14 15 8 10 24 29 22 27 31 18 8 9 9 10 14 13 7 7 7 7 12 15 16 19 17 13 14 14 10 8 9 11 8 6 7 7 5 4 5 5 1 2 7 5 2 6 7 9 12 14 15 16 19 22 23 25 26 26 27 27
33 33 30 28 28 28 25 21 23 24 17 16 22 21 19 17 13 7 1 3 3 3 3 2 2 3 1 8 18 16 4 2 8 20 27 28 30 23 12 9 8 7 7 7 5 5 8 12 11 13 15 16 15 12 12 15 12 6 6 10 10 9 10 10 8 7 6 5 5 6 7 7 7 6 5 9 11 12 15 16 17 22 25 26 28 28 28 30
33 33 30 27 25 22 21 21 22 22 21 23 24 21 19 15 9 3 1 3 1 4 3 2 3 4 2 9 22 14 4 3 2 10 26 30 26 21 14 12 13 10 11 11 9 6 11 16 15 15 14 12 12 10 13 17 13 4 7 10 10 10 11 10 8 8 7 5 9 10 7 6 10 4 5 7 11 11 15 18 17 21 25 27 28 28 29 31
34 32 28 26 22 18 17 18 20 22 22 23 24 20 18 12 5 1 2 4 1 4 3 3 3 3 4 9 17 14 8 4 2 1 16 27 27 18 10 12 12 9 13 15 11 5 7 14 17 15 11 10 10 9 14 18 11 4 8 8 7 7 6 7 7 6 4 6 11 10 9 7 11 6 6 6 9 12 13 15 16 21 25 27 28 29 30 31
34 32 26 21 20 17 17 17 18 22 22 23 22 18 14 6 2 3 4 4 1 3 4 2 3 3 3 6 7 12 9 7 6 2 12 17 22 17 6 8 10 7 9 12 11 3 3 7 13 12 11 11 9 8 12 16 11 7 8 7 6 5 3 3 3 2 4 8 12 12 10 8 10 8 9 7 7 10 10 10 13 18 23 27 28 30 30 31
33 31 22 15 15 17 19 19 19 21 22 22 20 15 7 0 2 4 4 1 4 4 5 3 3 5 2 2 4 5 8 8 2 6 10 9 14 13 7 8 8 6 7 8 11 8 3 5 7 8 13 13 10 8 9 12 12 9 8 8 5 4 2 3 3 3 8 10 7 10 11 10 11 7 7 9 9 11 11 11 12 15 22 28 30 31 33 32
33 31 21 10 9 13 16 19 21 22 21 21 20 12 2 2 3 6 3 4 3 4 6 5 6 9 9 6 4 4 4 4 5 10 9 8 11 11 10 10 10 9 9 10 9 9 9 7 4 4 12 16 12 9 8 7 11 11 9 9 7 5 4 6 6 6 9 6 3 8 10 10 12 7 4 9 10 12 13 12 14 16 22 28 30 33 34 34
33 30 20 7 6 13 14 17 20 21 20 20 17 8 1 4 4 4 4 4 3 7 8 8 12 14 11 6 2 4 3 1 5 9 9 9 9 11 12 11 11 9 5 9 10 8 7 6 7 6 7 15 16 11 9 8 11 13 10 10 10 7 7 9 8 5 7 4 4 7 7 7 9 6 8 13 12 13 16 17 18 20 24 30 33 35 35 35
32 29 19 4 5 15 16 16 19 19 19 18 11 3 4 6 2 2 4 5 6 10 10 11 15 14 8 3 3 4 1 2 1 3 7 8 8 10 10 9 12 7 2 7 9 8 10 7 10 13 8 13 18 13 10 8 9 12 9 9 10 7 7 7 6 6 5 2 5 7 6 6 5 2 7 14 16 18 20 21 22 23 28 31 30 31 32 33
31 25 12 2 7 15 17 16 16 16 17 13 5 1 4 4 2 4 5 7 8 9 13 16 13 8 3 1 3 7 3 2 5 1 6 8 7 9 10 9 11 8 5 7 5 6 13 7 7 15 12 14 17 14 11 11 8 10 8 8 10 7 5 2 2 3 1 0 4 5 4 4 2 2 4 7 13 16 16 18 19 22 26 24 20 23 29 33
31 23 7 3 13 18 18 17 13 13 13 8 2 2 3 2 3 3 5 10 9 10 15 15 6 2 3 2 3 8 6 4 6 2 5 6 2 1 3 3 5 9 7 7 5 5 9 6 6 10 10 14 18 15 14 12 7 6 9 11 7 6 7 5 2 1 0 4 4 5 7 5 2 6 7 7 9 11 12 13 15 19 22 19 17 22 27 31
34 25 8 10 20 21 20 17 13 12 8 2 2 2 1 1 4 6 8 11 10 10 10 7 4 4 5 3 4 10 10 6 5 3 2 3 2 5 5 5 3 2 2 3 5 5 5 6 5 9 11 13 15 16 16 14 10 7 9 10 7 6 7 6 4 3 5 7 3 5 10 9 5 6 6 10 10 11 13 13 14 17 18 17 19 23 28 31
33 22 10 15 24 22 17 14 10 7 2 1 3 2 1 2 6 9 11 12 10 8 7 4 3 6 7 5 5 10 11 6 5 5 1 1 1 5 6 5 5 6 8 6 3 3 3 5 5 11 15 10 9 13 12 12 11 6 7 9 8 5 8 6 4 6 7 7 4 4 8 9 9 7 5 9 12 12 12 13 14 15 15 17 20 23 29 31
28 18 9 16 23 18 12 9 8 4 1 1 2 2 3 4 8 11 13 12 8 6 6 4 4 5 6 7 7 9 9 5 6 5 2 3 1 4 9 5 6 10 11 5 3 3 4 6 4 7 11 10 9 10 10 10 9 3 4 9 6 4 6 7 5 4 5 6 4 3 5 7 9 8 6 8 11 12 12 11 12 14 16 20 24 24 27 31
25 13 7 18 23 14 8 7 10 6 1 2 2 3 6 6 9 11 12 11 6 5 5 5 7 7 6 8 8 7 6 5 7 5 2 4 3 4 10 9 7 13 13 4 4 2 3 6 5 2 5 8 9 9 11 13 10 7 7 10 7 3 3 5 5 4 5 5 4 5 7 5 4 6 9 11 9 10 12 10 10 14 17 22 30 32 30 33
22 8 6 20 21 11 6 7 9 5 1 4 4 5 8 8 9 12 12 10 6 5 7 8 8 8 7 8 7 5 6 6 6 5 3 3 4 3 8 11 9 11 10 1 2 1 1 5 6 5 5 7 8 11 16 18 15 13 11 10 11 8 5 6 7 7 7 6 4 4 8 5 4 5 8 11 9 9 12 12 10 14 19 25 34 38 35 34
15 6 9 20 20 13 8 6 6 4 1 4 6 6 9 9 9 11 12 10 6 5 6 7 7 6 6 6 5 5 5 4 4 4 1 3 5 4 9 15 13 10 7 2 3 4 2 1 4 6 5 4 6 11 16 16 16 16 13 11 13 10 9 9 8 6 8 6 3 2 8 5 4 6 7 9 9 8 10 11 10 13 19 26 35 36 31 30
11 9 12 18 17 13 8 4 5 5 2 6 9 7 8 8 8 10 10 8 7 6 6 4 5 5 5 5 6 6 5 4 3 3 3 5 6 6 12 17 15 10 6 3 3 4 3 1 4 5 2 0 2 6 7 6 8 13 12 11 12 12 13 12 5 3 6 7 5 4 8 4 4 4 6 6 7 6 6 9 11 13 16 21 29 31 25 22
11 10 12 18 17 12 8 4 5 5 5 9 10 7 7 7 7 10 10 8 7 7 6 5 6 7 7 7 6 4 4 3 2 6 5 3 5 8 15 17 15 10 7 6 6 4 2 0 3 5 5 5 6 7 8 5 6 8 10 12 14 16 18 11 2 2 5 11 12 9 9 4 2 1 3 4 5 6 7 9 11 13 15 18 22 23 21 19
11 7 9 18 17 13 10 6 6 5 7 11 10 8 8 7 7 11 12 9 8 8 7 7 7 7 7 8 6 3 5 3 2 4 4 4 4 7 14 17 13 10 10 10 9 4 2 1 1 5 9 10 8 7 6 4 4 7 9 14 16 19 23 14 5 5 7 9 13 12 8 2 3 1 3 4 5 6 9 10 9 12 17 19 19 17 16 17
8 3 7 13 12 10 8 7 9 7 6 9 8 6 8 8 8 11 12 8 8 11 9 7 8 7 6 9 7 4 6 6 4 4 4 5 4 4 13 15 9 11 13 14 12 5 1 0 2 3 3 4 3 2 3 4 2 5 9 15 18 20 23 16 10 10 6 5 10 13 8 4 4 5 4 4 6 6 9 9 7 10 16 19 20 17 14 16
5 3 6 8 6 6 5 7 11 9 7 9 6 4 8 9 8 10 9 6 9 13 9 4 7 8 7 10 8 5 7 8 5 4 6 7 4 5 11 9 5 12 15 13 12 6 0 1 2 2 3 4 6 8 7 6 6 7 8 12 16 19 22 20 15 9 7 6 12 10 7 8 9 6 5 5 6 7 8 8 8 12 15 16 15 13 11 13
4 4 7 6 3 5 6 8 12 11 9 10 5 3 8 9 8 9 7 7 11 11 5 2 8 10 9 10 7 5 7 6 4 5 7 7 7 8 9 4 3 12 14 10 9 6 1 1 3 5 6 6 8 10 9 6 7 9 10 12 13 17 22 23 20 12 9 9 12 4 9 12 12 9 8 5 5 6 7 10 13 14 12 10 9 9 9 11
5 5 6 6 5 8 9 10 12 11 10 9 5 3 7 9 10 9 7 7 9 7 4 4 9 11 10 9 6 5 5 5 4 5 6 9 9 7 6 3 2 9 13 8 7 6 2 1 4 6 7 7 8 9 8 5 6 9 12 13 14 15 17 18 19 18 15 15 14 5 9 13 13 13 13 10 9 10 9 12 15 12 9 7 7 9 10 12
7 6 7 7 8 10 10 9 9 9 9 8 4 4 8 10 10 10 9 9 9 5 5 8 12 12 10 9 7 6 6 6 6 6 6 8 8 4 3 3 3 8 11 7 5 6 4 2 4 6 6 6 6 5 6 7 8 10 12 13 14 14 14 14 16 17 16 16 16 10 9 10 9 9 11 11 10 10 9 11 14 14 12 10 11 14 17 19
9 10 10 8 7 7 9 8 8 8 6 4 4 6 9 10 11 12 12 10 8 4 5 10 13 11 10 9 8 8 8 7 8 9 9 9 9 7 6 5 6 8 7 5 4 5 4 2 3 5 4 4 2 3 8 12 11 13 15 16 15 13 12 11 11 13 13 13 15 14 11 9 5 4 6 7 7 7 8 8 12 17 19 18 19 22 25 26
11 11 10 7 5 5 7 7 7 6 5 5 6 9 10 11 13 12 9 6 2 3 8 12 13 10 8 8 9 9 11 12 14 16 15 14 16 16 15 14 14 9 5 4 4 3 3 4 3 3 3 4 3 4 9 11 9 12 12 12 14 15 14 12 10 12 14 13 12 12 9 7 6 6 8 8 9 11 11 13 17 20 22 23 23 25 27 28
Wind_Direction
337 335 334 332 331 329 327 325 323 321 319 315 313 309 305 302 299 296 294 292 292 291 290 290 291 293 292 294 293 294 294 290 291 282 273 279 286 270 252 242 238 229 217 212 214 195 173 175 182 182 177 173 181 181 182 185 178 183 201 230 239 242 237 216 216 183 11 341 160 173 179 171 152 157 149 143 151 148 159 162 161 173 179 177 180 172 167 164
338 336 334 331 330 328 327 324 322 321 319 317 315 311 308 305 301 297 294 291 289 288 288 288 290 292 293 294 294 297 296 295 294 281 275 282 276 260 241 232 232 230 224 214 214 207 183 176 178 176 168 166 177 178 183 186 185 197 208 226 233 227 220 241 267 290 283 326 155 180 185 182 172 160 161 164 156 156 161 163 160 151 145 167 172 170 168 165
340 338 336 334 333 330 328 325 323 320 317 316 313 311 309 306 303 300 296 293 289 287 285 286 288 291 293 294 296 298 302 305 297 285 280 272 256 240 226 225 226 225 224 222 216 213 200 183 177 172 162 164 175 176 185 186 193 212 218 238 242 234 256 266 264 264 268 292 194 185 185 188 174 160 171 174 160 172 181 173 169 163 155 158 165 170 169 165
342 340 339 338 336 333 331 328 326 322 319 315 312 309 306 304 303 299 297 295 291 288 284 283 284 288 291 295 297 299 311 314 297 282 254 198 198 185 198 217 223 222 219 222 218 211 206 190 178 171 165 170 177 180 191 190 188 198 210 235 233 208 253 254 251 254 262 274 243 185 179 190 171 165 175 162 158 195 206 192 185 179 166 158 164 170 169 167
344 342 341 339 337 334 332 331 328 325 321 317 313 309 305 303 300 297 296 294 293 290 286 283 282 285 288 292 295 298 317 323 284 202 166 152 146 157 168 221 222 217 209 206 199 195 196 187 174 166 172 175 175 186 202 200 198 207 224 241 238 227 262 253 234 248 265 274 229 178 185 182 165 177 181 172 183 211 212 205 194 185 178 169 168 170 169 170
344 343 340 338 336 334 332 331 329 326 322 318 315 311 307 303 298 296 294 294 294 291 287 283 280 281 282 288 292 292 280 258 212 163 170 172 276 268 260 262 231 211 198 189 183 184 185 178 169 167 179 182 185 192 197 199 207 231 238 242 242 244 257 255 231 257 278 262 196 188 193 169 167 194 191 190 205 210 219 209 194 187 186 176 169 171 172 173
343 341 339 337 335 333 332 330 328 325 322 318 316 313 309 305 300 296 293 292 291 289 288 284 280 277 278 283 285 282 248 248 243 200 212 266 280 269 261 259 241 210 188 180 179 180 179 173 172 173 176 185 198 199 190 197 208 229 247 243 243 245 249 254 257 263 268 256 239 202 185 177 186 197 190 202 212 208 260 205 193 187 181 175 172 175 176 176
342 340 337 336 333 332 330 329 327 324 320 318 315 313 310 307 302 297 293 290 288 287 285 282 280 274 273 277 279 277 251 251 254 237 250 269 272 266 254 247 230 205 186 182 181 180 177 173 175 172 178 191 186 195 197 195 207 224 243 251 250 254 256 262 264 261 258 257 252 200 192 199 198 185 190 208 208 208 229 187 191 187 177 177 175 177 178 178
342 340 337 335 332 331 329 328 327 323 320 316 315 313 311 309 304 299 295 290 287 284 281 281 279 272 269 269 271 274 258 258 270 264 262 265 262 252 238 234 217 196 185 184 183 182 177 173 178 174 182 190 171 188 198 205 210 217 232 249 255 259 266 271 269 265 257 251 233 204 215 213 196 181 208 209 195 203 208 180 186 183 177 176 178 180 181 182
345 342 340 336 333 331 328 327 326 323 319 315 315 314 312 310 306 302 297 293 289 283 279 276 274 270 264 259 249 255 261 267 287 263 255 252 234 215 212 227 212 191 183 182 184 186 183 183 185 177 174 185 185 195 192 206 219 212 227 241 250 258 268 272 272 270 261 248 225 216 232 215 184 191 225 194 186 198 184 172 181 179 177 176 180 184 184 186
348 346 342 339 336 333 331 330 327 323 319 316 317 315 314 312 308 304 299 295 293 287 278 271 269 265 259 250 228 234 255 260 264 201 154 174 177 153 164 201 207 191 183 182 186 194 194 196 188 176 168 179 187 208 213 222 236 248 246 250 251 254 265 261 265 266 252 251 227 217 235 194 169 211 224 172 177 193 177 168 175 176 177 177 180 185 187 189
350 347 343 341 338 337 336 335 331 325 320 319 318 317 317 315 311 306 301 299 296 288 276 266 261 256 253 246 238 240 249 247 231 196 163 156 150 115 104 149 207 194 185 183 187 194 199 203 191 181 176 165 169 193 223 224 233 251 260 272 266 258 269 251 252 252 217 245 220 198 229 179 184 220 205 169 171 180 174 168 170 173 175 177 180 184 190 191
350 347 344 341 339 339 339 339 335 330 323 320 319 319 320 318 315 310 305 304 300 291 277 263 254 247 237 241 248 246 238 239 235 222 226 228 186 136 97 116 198 193 185 185 188 190 198 206 199 192 186 169 164 166 190 201 223 241 237 260 273 269 276 245 243 238 204 234 184 171 241 221 203 207 170 168 172 166 167 168 170 174 174 177 181 184 192 194
350 347 344 341 340 339 340 341 339 335 330 324 321 322 323 321 316 312 310 308 308 303 280 260 246 236 227 238 254 252 231 233 235 231 228 223 213 214 214 177 188 189 184 186 190 189 195 201 198 196 195 189 177 193 238 30 205 236 227 236 256 257 262 179 191 206 191 213 174 176 258 259 204 189 164 170 175 168 168 170 173 176 174 179 182 185 192 195
349 346 343 341 340 339 339 341 340 339 335 327 324 326 325 321 315 310 308 308 314 314 289 257 231 213 227 253 259 257 240 229 232 233 226 224 231 235 233 212 186 190 191 191 193 194 193 191 192 195 205 213 224 247 258 275 234 237 239 224 213 235 252 268 260 228 228 199 182 190 254 275 201 171 168 171 176 173 171 172 175 178 177 180 183 186 191 195
347 344 341 339 338 338 338 339 340 340 337 331 330 331 327 317 309 301 299 302 317 324 314 258 218 202 229 274 263 255 247 232 232 236 231 229 232 230 229 214 183 186 196 196 190 193 194 190 191 203 218 215 217 223 235 253 236 211 229 234 213 221 258 284 244 239 252 175 185 206 241 283 173 164 168 171 178 176 173 173 177 180 179 181 185 189 190 193
346 343 340 338 337 336 336 338 340 340 338 334 334 338 330 313 301 294 291 293 312 327 326 274 192 206 238 255 257 249 243 233 228 232 230 225 223 222 213 194 180 182 192 197 191 176 183 185 187 202 216 216 199 189 207 231 223 197 211 238 245 237 262 265 210 66 231 195 197 215 235 260 104 156 171 174 179 180 179 177 178 181 182 182 187 190 192 192
346 344 340 338 337 336 336 337 340 341 339 337 340 343 329 310 299 291 285 287 301 307 294 211 156 213 250 231 230 211 189 203 208 216 218 209 212 217 210 196 183 174 173 184 190 175 170 175 185 192 199 205 195 190 207 216 204 197 199 219 242 238 245 250 246 13 249 229 226 219 230 241 173 159 180 181 183 186 185 180 179 182 183 184 187 191 195 196
346 344 341 340 338 337 338 338 340 342 338 339 349 343 326 315 307 287 279 287 288 266 265 196 178 217 284 213 220 215 211 204 199 212 206 195 195 198 205 204 184 168 159 163 180 180 174 164 189 206 206 200 195 200 209 189 171 201 209 226 240 234 242 251 263 305 290 264 252 234 240 244 210 172 185 188 187 191 188 178 179 183 185 187 190 194 197 199
347 344 341 341 340 338 342 341 341 343 339 346 352 346 350 349 333 300 305 297 274 253 259 246 226 242 260 254 240 234 236 227 222 218 201 197 185 175 181 184 172 166 165 165 166 172 180 191 209 211 205 186 186 200 207 201 157 189 201 224 238 242 249 256 276 293 301 282 263 246 250 253 229 183 185 187 187 193 189 180 183 186 188 191 193 197 199 202
347 344 342 343 340 339 345 345 342 342 343 346 348 6 43 27 7 322 318 308 287 266 262 258 250 252 254 253 251 254 271 264 237 217 203 197 183 171 171 169 163 176 179 150 137 151 180 214 220 200 183 170 182 197 200 207 202 188 196 215 233 236 245 259 275 285 290 280 272 266 265 262 241 193 183 182 185 196 195 191 191 191 191 193 196 199 200 201
346 344 343 342 340 340 346 347 345 345 344 340 344 39 52 23 1 320 306 303 295 292 278 264 256 254 253 250 249 253 265 276 247 222 202 185 184 180 170 173 178 175 164 146 137 159 196 228 213 173 158 169 183 192 196 208 214 218 219 225 241 233 249 267 257 264 259 254 280 290 280 273 253 200 190 186 189 199 201 199 198 193 191 194 197 199 197 196
346 345 344 343 341 342 347 350 349 347 345 340 359 31 14 352 347 324 275 272 291 293 282 264 254 251 250 247 246 245 239 240 243 230 205 181 187 190 174 178 189 162 157 179 185 182 205 230 188 156 162 179 184 188 194 205 213 221 218 222 237 216 220 247 214 186 246 245 275 295 287 280 259 208 206 199 197 202 205 206 204 197 196 199 199 197 195 195
348 345 346 344 340 342 350 350 350 354 352 355 17 5 349 338 338 331 291 252 281 290 281 265 254 252 249 247 242 230 223 222 226 227 211 189 181 187 186 183 178 169 176 191 196 200 213 196 153 160 174 188 190 185 190 202 210 217 216 221 231 211 211 238 306 338 292 250 244 270 281 269 222 216 219 201 201 209 207 206 206 203 205 205 200 198 200 200
349 348 347 345 341 343 350 348 350 359 1 14 1 344 337 336 333 331 312 257 267 277 280 261 245 251 245 235 223 213 217 223 224 224 211 195 187 173 179 184 177 192 193 186 195 214 221 136 150 169 178 191 199 195 193 200 209 217 217 222 225 204 205 223 255 297 285 258 216 228 269 264 200 221 221 185 195 211 208 206 207 206 206 205 202 202 203 204
351 351 349 346 344 343 350 353 349 356 2 355 348 338 333 336 330 326 307 266 277 248 234 197 220 230 189 192 190 183 194 239 236 227 211 203 198 179 158 174 191 208 186 172 195 230 206 150 159 178 182 188 202 210 195 191 213 229 205 202 205 190 199 215 222 237 261 267 231 196 258 273 246 233 219 188 198 209 207 210 211 207 207 206 205 205 203 204
351 353 350 348 348 345 349 351 343 350 354 341 340 337 333 332 329 332 278 265 271 185 119 114 150 100 114 188 171 162 166 285 235 216 209 207 196 188 189 175 189 206 149 142 211 215 167 158 165 184 186 190 205 210 183 181 215 233 151 161 180 193 210 220 230 239 253 276 274 246 247 275 271 241 199 191 204 212 212 215 213 210 210 208 209 208 204 205
351 354 352 348 351 349 345 342 339 347 348 338 337 334 330 329 326 316 250 294 267 124 90 120 107 69 90 172 174 180 313 349 102 201 206 204 189 187 204 193 188 184 152 167 206 177 159 174 178 179 187 199 207 190 162 181 214 211 137 156 176 194 213 217 226 242 247 260 260 241 214 252 265 231 144 179 203 216 219 217 215 212 211 210 211 210 206 206
349 354 354 349 353 351 342 341 339 341 341 338 337 331 327 328 318 230 237 284 204 94 47 121 98 27 93 150 191 228 309 341 349 201 191 195 189 186 208 200 184 167 168 192 212 163 153 190 185 174 187 206 200 168 159 185 208 161 141 145 152 176 193 200 221 237 226 234 248 230 189 226 265 232 166 178 207 218 221 217 215 214 212 211 212 211 209 208
348 354 354 350 353 350 343 344 338 335 339 339 335 329 328 322 233 199 215 250 11 38 6 79 66 357 115 141 214 244 260 278 324 121 169 184 189 189 186 175 169 159 181 209 224 204 84 186 184 177 200 202 180 164 173 189 185 140 151 154 145 159 144 169 216 212 223 241 243 225 192 213 264 244 189 188 205 206 213 217 212 211 211 212 212 212 211 208
347 353 354 351 355 351 343 342 338 336 339 340 337 330 323 276 201 222 208 265 354 4 360 28 36 358 339 258 253 230 227 253 287 153 168 176 185 186 157 152 169 175 187 211 223 223 208 178 171 189 207 191 161 173 190 187 174 163 184 188 176 179 176 212 196 184 235 244 228 207 194 207 245 247 184 187 195 195 208 215 205 204 209 212 212 212 211 209
347 351 351 343 353 355 342 337 336 335 340 344 340 333 290 202 223 223 259 329 333 360 359 343 344 343 328 303 266 242 234 228 181 167 179 186 183 185 182 178 174 178 198 202 198 208 214 200 165 194 204 189 174 185 192 178 180 192 197 190 194 194 195 219 209 208 237 243 149 177 187 210 240 255 189 195 198 198 212 218 207 203 207 209 209 209 210 209
347 350 345 321 341 352 340 336 335 332 341 348 342 337 212 230 232 223 299 346 14 358 344 318 324 322 302 290 290 271 263 209 182 183 185 191 191 192 199 195 181 184 202 188 182 191 204 212 206 204 199 191 188 189 189 180 186 198 196 188 195 191 196 213 208 219 242 229 131 149 171 226 250 249 209 206 206 206 212 218 216 209 210 212 210 208 208 207
347 351 346 318 332 340 332 333 336 331 339 351 349 346 196 223 268 13 357 1 351 341 333 318 320 313 282 254 13 354 317 86 64 193 189 189 195 197 200 196 193 196 108 167 191 193 198 218 206 199 185 176 190 204 193 162 175 198 194 192 204 201 203 211 201 220 245 202 142 144 169 219 222 206 204 205 207 207 209 215 217 217 221 221 215 208 205 207
347 352 354 345 328 330 326 328 331 326 333 349 358 248 214 230 325 17 12 355 344 338 329 317 309 299 282 155 28 11 19 60 28 349 199 192 195 200 201 195 194 195 163 176 192 190 209 229 182 191 184 163 187 207 172 146 176 196 176 199 221 201 185 220 225 224 272 325 168 172 220 233 187 302 271 225 218 212 211 214 213 220 226 222 210 203 204 207
348 357 10 343 333 330 328 330 327 319 325 343 349 235 243 273 3 20 2 351 344 337 327 320 313 301 336 10 21 11 3 352 5 349 192 181 163 196 224 215 193 199 197 197 190 171 209 221 142 168 180 178 191 190 169 172 182 167 181 205 203 160 184 230 246 116 228 254 209 187 242 259 251 261 237 212 223 218 214 218 216 223 225 216 206 204 205 206
350 358 3 345 342 337 334 334 327 316 321 335 245 266 266 313 20 14 354 347 335 331 330 326 352 7 358 355 360 358 344 329 353 354 171 153 59 14 334 329 359 239 293 291 220 179 197 213 150 153 183 197 192 179 180 186 161 145 197 190 123 131 208 233 242 210 220 243 229 195 234 241 232 244 199 184 207 215 214 214 216 224 226 221 216 213 212 210
349 353 1 349 342 340 339 339 336 321 324 134 245 279 348 323 355 357 349 345 332 329 330 307 342 17 5 343 344 350 339 331 0 354 32 105 50 21 355 323 345 346 343 334 256 185 211 227 177 176 192 184 163 177 187 183 172 177 191 161 135 181 203 186 218 234 221 234 242 204 229 237 226 222 172 176 197 210 216 214 213 219 221 224 223 218 217 214
351 354 5 348 340 345 356 6 21 37 129 98 263 290 358 326 327 339 345 344 329 319 320 295 322 350 341 330 328 338 335 335 349 339 12 26 24 44 20 343 310 328 331 313 232 177 195 220 210 194 188 159 156 189 193 182 188 191 150 163 177 212 195 178 196 224 214 228 244 219 229 236 221 206 188 193 200 206 213 212 215 219 216 220 225 222 217 215
358 357 354 347 345 353 12 27 39 49 79 34 8 332 347 331 321 329 336 340 327 307 303 297 315 318 316 323 316 319 327 322 329 325 340 16 57 77 24 2 319 321 326 295 208 197 191 210 220 164 149 166 179 194 196 190 189 187 185 188 185 173 187 196 202 208 215 227 230 238 249 240 180 181 201 206 206 212 214 211 216 223 221 223 228 228 223 218
3 353 336 348 352 360 18 31 32 23 15 31 14 338 333 323 322 326 327 330 316 281 278 286 299 299 296 309 306 307 314 299 302 302 286 4 46 67 12 356 326 315 321 314 134 1 215 202 210 186 176 194 188 187 201 202 195 194 200 197 188 181 175 194 210 206 209 227 214 230 264 258 145 163 204 205 204 212 214 212 215 222 225 226 229 232 231 226
2 344 344 353 357 7 25 46 28 11 36 8 342 320 317 313 319 325 326 331 325 296 286 284 288 289 292 311 312 306 314 303 291 290 269 58 49 26 353 344 331 323 333 25 71 17 349 215 213 210 210 205 183 192 210 215 206 202 203 196 192 187 183 202 220 192 188 219 206 225 273 268 144 159 197 203 208 215 214 215 220 225 228 229 231 233 234 230
347 328 353 5 6 10 26 57 21 12 20 346 331 315 314 318 330 332 330 336 342 333 320 305 315 328 336 339 323 312 319 319 332 17 55 74 56 7 344 345 345 349 5 21 20 3 342 227 203 214 241 289 194 217 235 241 217 211 208 199 195 195 197 209 222 165 185 205 185 211 253 242 138 172 203 208 222 238 236 224 225 233 237 237 238 240 241 236
331 311 344 10 22 34 44 42 9 0 352 342 334 334 342 343 347 342 332 335 345 339 321 318 339 348 343 327 314 328 345 325 27 45 41 55 39 353 341 347 355 7 24 15 353 332 313 254 195 204 208 210 215 222 223 213 208 218 214 203 200 200 203 208 175 127 216 208 194 214 237 210 113 182 216 221 233 249 254 236 226 236 243 244 246 248 247 243
336 312 336 360 22 51 65 55 20 1 356 347 335 338 349 346 348 346 337 334 348 348 325 315 332 342 346 338 323 345 8 353 7 31 34 36 28 351 339 341 349 7 12 2 352 322 278 353 236 214 209 209 210 210 214 209 202 214 215 208 204 201 205 207 183 200 220 197 193 216 232 179 106 161 216 243 245 253 258 248 234 242 252 255 256 255 251 247
343 332 339 347 10 43 61 51 23 6 360 349 332 334 349 345 344 344 339 340 358 352 329 309 332 347 360 358 344 338 2 352 340 9 18 8 13 342 331 329 337 3 4 359 356 339 236 13 294 265 249 238 250 261 303 337 273 227 223 214 208 206 209 207 208 217 200 163 207 223 223 216 198 182 187 223 233 245 258 259 252 251 258 263 266 266 258 249
348 344 349 344 354 10 16 24 12 359 349 343 323 315 341 342 340 342 343 342 346 343 326 310 11 18 12 2 348 329 347 344 340 9 2 353 360 333 324 318 334 1 4 2 0 355 237 35 17 358 350 333 318 303 299 304 271 257 257 233 216 210 211 211 217 210 139 167 233 222 191 221 229 208 199 206 219 240 250 256 261 258 258 261 268 272 261 246
352 331 341 343 338 343 344 345 343 337 334 333 316 301 331 338 341 341 342 334 332 339 337 337 15 17 4 356 344 320 339 347 356 15 5 351 349 339 338 345 14 7 7 6 10 13 286 329 32 7 338 322 306 293 287 280 256 253 260 254 239 224 216 215 220 209 162 207 245 192 158 214 232 231 233 215 210 230 239 256 266 264 256 249 251 257 252 246
343 323 326 333 324 320 316 313 318 323 330 327 312 315 331 334 336 333 332 326 321 341 24 357 348 355 350 344 335 310 326 344 343 359 2 347 339 333 336 337 10 10 7 5 16 12 319 332 26 351 325 312 297 288 288 286 269 263 260 257 256 247 236 228 226 220 208 227 245 195 171 214 224 225 234 232 234 247 262 274 272 260 242 238 250 259 263 266
337 326 318 318 314 310 306 308 316 322 328 327 319 337 335 328 329 330 326 313 297 308 15 358 337 337 333 328 317 292 302 318 305 307 328 332 331 332 335 337 350 357 356 355 6 360 342 1 11 349 320 299 293 293 298 300 292 284 271 259 257 257 253 245 235 227 219 227 236 220 205 223 215 215 233 229 227 244 258 260 258 255 256 267 278 281 283 283
325 322 316 308 306 312 312 318 325 319 321 331 326 334 333 322 325 329 320 306 285 279 339 339 327 323 320 318 312 297 304 311 289 286 299 297 291 294 298 303 317 333 345 341 341 348 339 329 349 346 309 278 285 328 321 320 307 280 265 257 254 253 250 244 235 229 222 225 232 228 228 231 201 199 247 234 206 217 230 242 258 267 272 277 280 282 285 286
326 322 319 309 300 309 312 316 321 313 315 326 318 319 319 312 317 324 319 317 318 296 315 319 316 315 313 310 313 313 314 310 298 292 289 276 270 274 272 271 279 284 291 307 320 321 306 310 327 328 298 273 275 327 331 323 293 263 254 244 242 245 246 244 238 230 224 224 231 231 232 232 198 196 231 237 224 224 228 238 251 259 264 269 271 273 276 278
Height
1522 1520 1519 1517 1516 1515 1514 1513 1511 1510 1509 1508 1507 1506 1504 1503 1502 1501 1500 1499 1498 1497 1496 1495 1495 1495 1494 1493 1492 1492 1491 1490 1490 1489 1486 1483 1485 1487 1489 1490 1491 1492 1493 1495 1496 1497 1498 1501 1503 1505 1507 1510 1512 1512 1514 1515 1515 1516 1517 1522 1521 1517 1513 1507 1505 1505 1504 1503 1502 1502 1502 1504 1507 1509 1510 1512 1514 1515 1516 1518 1518 1519 1519 1520 1521 1522 1525 1527
1521 1519 1518 1517 1515 1514 1513 1511 1510 1509 1507 1506 1505 1504 1503 1502 1500 1499 1498 1497 1497 1495 1494 1493 1493 1493 1492 1492 1491 1490 1489 1488 1487 1484 1482 1481 1482 1483 1485 1487 1488 1490 1491 1493 1494 1495 1496 1498 1501 1503 1507 1509 1511 1512 1513 1514 1514 1514 1515 1519 1516 1510 1506 1501 1501 1501 1501 1502 1501 1501 1502 1503 1505 1506 1509 1511 1513 1514 1516 1517 1518 1519 1519 1520 1521 1523 1525 1527
1520 1518 1517 1515 1514 1512 1511 1510 1509 1507 1506 1505 1503 1502 1501 1500 1499 1498 1497 1496 1495 1494 1493 1492 1492 1491 1491 1490 1490 1489 1488 1487 1484 1480 1478 1479 1479 1479 1482 1484 1485 1487 1489 1491 1493 1495 1496 1497 1500 1503 1506 1509 1510 1512 1512 1513 1513 1511 1513 1516 1510 1503 1501 1499 1500 1500 1500 1501 1500 1501 1502 1502 1503 1505 1507 1509 1512 1513 1513 1514 1515 1517 1518 1519 1520 1522 1524 1527
1518 1517 1515 1514 1512 1511 1509 1508 1507 1505 1504 1503 1501 1500 1499 1497 1496 1495 1494 1494 1493 1492 1491 1490 1490 1489 1489 1489 1489 1488 1487 1486 1480 1476 1476 1477 1477 1478 1480 1482 1483 1485 1488 1490 1493 1494 1496 1498 1500 1503 1505 1507 1509 1511 1511 1511 1510 1509 1510 1509 1503 1500 1501 1499 1499 1500 1500 1500 1500 1501 1502 1503 1503 1505 1506 1507 1512 1513 1509 1509 1509 1510 1514 1517 1519 1521 1523 1525
1518 1516 1514 1512 1511 1509 1508 1506 1505 1503 1502 1500 1499 1498 1496 1495 1494 1493 1492 1491 1491 1490 1489 1489 1488 1488 1488 1487 1487 1487 1489 1486 1477 1474 1476 1476 1477 1478 1479 1481 1482 1483 1486 1489 1491 1493 1496 1498 1500 1503 1505 1505 1508 1509 1508 1508 1508 1507 1504 1501 1499 1500 1500 1498 1498 1500 1500 1499 1500 1501 1501 1502 1503 1504 1504 1504 1507 1507 1503 1505 1507 1508 1509 1512 1515 1518 1522 1524
1517 1515 1513 1511 1510 1508 1506 1505 1503 1501 1500 1498 1497 1495 1494 1493 1491 1491 1490 1489 1488 1488 1487 1487 1486 1486 1486 1486 1486 1486 1488 1484 1475 1474 1475 1476 1477 1477 1478 1479 1480 1482 1484 1486 1488 1491 1493 1496 1499 1501 1503 1503 1505 1505 1505 1506 1507 1507 1502 1498 1498 1499 1498 1497 1498 1499 1499 1499 1499 1500 1500 1500 1501 1502 1502 1502 1501 1500 1500 1503 1507 1509 1510 1511 1513 1516 1519 1522
1516 1514 1512 1510 1509 1507 1505 1503 1501 1500 1498 1496 1494 1493 1491 1490 1489 1488 1487 1486 1486 1485 1485 1484 1485 1484 1484 1485 1484 1484 1485 1478 1472 1475 1475 1475 1476 1476 1477 1478 1479 1480 1482 1484 1486 1488 1491 1494 1496 1498 1501 1503 1503 1502 1503 1504 1505 1506 1501 1497 1498 1498 1496 1496 1498 1497 1498 1499 1498 1498 1498 1498 1499 1500 1500 1499 1498 1499 1501 1502 1504 1508 1511 1513 1514 1515 1518 1520
1515 1513 1511 1509 1507 1505 1504 1502 1500 1498 1496 1494 1492 1490 1488 1487 1486 1485 1484 1484 1483 1482 1482 1482 1483 1482 1483 1483 1482 1483 1480 1471 1470 1474 1473 1474 1475 1474 1476 1476 1477 1478 1479 1481 1483 1485 1488 1491 1494 1497 1499 1500 1501 1501 1503 1504 1504 1503 1500 1496 1497 1496 1494 1495 1496 1496 1496 1496 1497 1498 1496 1495 1495 1497 1496 1495 1497 1500 1500 1502 1503 1507 1511 1514 1515 1516 1518 1520
1514 1512 1510 1508 1506 1504 1502 1500 1498 1496 1494 1492 1490 1487 1486 1485 1483 1482 1481 1480 1480 1480 1479 1480 1480 1480 1481 1481 1482 1480 1472 1467 1469 1471 1471 1472 1472 1473 1473 1474 1475 1476 1478 1481 1482 1484 1485 1488 1491 1494 1496 1498 1499 1499 1501 1504 1502 1498 1497 1497 1496 1495 1493 1494 1493 1493 1494 1494 1495 1496 1493 1493 1494 1497 1495 1493 1497 1499 1500 1502 1503 1506 1510 1513 1515 1516 1517 1519
1513 1511 1509 1507 1504 1502 1500 1498 1496 1494 1492 1490 1487 1485 1483 1482 1480 1479 1478 1477 1478 1477 1477 1477 1477 1478 1479 1479 1481 1477 1467 1467 1469 1467 1468 1469 1470 1471 1471 1472 1473 1474 1477 1480 1483 1483 1484 1486 1488 1492 1495 1496 1498 1498 1499 1501 1498 1495 1496 1496 1495 1494 1492 1492 1491 1489 1492 1492 1492 1493 1491 1491 1494 1497 1495 1491 1495 1497 1499 1502 1503 1505 1508 1511 1515 1516 1517 1518
1512 1510 1508 1505 1503 1501 1498 1497 1494 1492 1490 1487 1486 1483 1481 1479 1478 1476 1475 1474 1475 1474 1474 1474 1475 1475 1476 1476 1477 1472 1466 1467 1468 1467 1468 1468 1469 1470 1470 1471 1471 1473 1475 1478 1481 1483 1485 1486 1488 1492 1495 1495 1496 1498 1497 1497 1496 1495 1496 1496 1493 1493 1491 1490 1488 1487 1489 1489 1487 1489 1490 1491 1495 1495 1490 1488 1492 1495 1498 1501 1503 1505 1507 1510 1513 1516 1518 1519
1511 1509 1506 1504 1501 1499 1497 1495 1492 1490 1487 1485 1483 1481 1479 1477 1475 1473 1472 1472 1471 1472 1471 1471 1472 1472 1473 1474 1469 1464 1465 1467 1467 1468 1467 1467 1469 1469 1469 1471 1471 1472 1474 1477 1481 1483 1486 1487 1488 1491 1492 1492 1495 1496 1495 1494 1495 1495 1496 1497 1493 1491 1490 1487 1484 1484 1487 1486 1484 1488 1494 1495 1493 1489 1485 1487 1491 1494 1497 1500 1502 1505 1507 1510 1512 1515 1518 1519
1510 1507 1504 1502 1500 1497 1495 1493 1491 1488 1486 1484 1481 1479 1477 1475 1473 1471 1470 1469 1469 1469 1468 1469 1469 1470 1472 1468 1460 1460 1464 1465 1466 1467 1466 1467 1468 1468 1470 1471 1472 1474 1475 1477 1480 1482 1485 1487 1488 1489 1490 1491 1492 1494 1493 1492 1494 1494 1494 1496 1495 1495 1491 1483 1481 1482 1483 1484 1481 1488 1498 1494 1485 1483 1483 1486 1489 1493 1497 1499 1502 1503 1506 1509 1511 1514 1516 1519
1508 1506 1503 1500 1498 1496 1494 1491 1489 1486 1484 1481 1479 1477 1475 1473 1472 1470 1468 1467 1466 1466 1466 1466 1467 1468 1469 1461 1456 1459 1462 1462 1464 1464 1465 1466 1467 1469 1470 1471 1473 1475 1477 1478 1480 1482 1483 1486 1488 1489 1490 1490 1491 1492 1492 1492 1494 1494 1494 1495 1496 1500 1493 1480 1480 1482 1483 1484 1479 1486 1496 1487 1478 1481 1483 1484 1486 1490 1494 1496 1500 1502 1504 1507 1509 1512 1515 1517
1507 1505 1502 1499 1496 1494 1492 1490 1487 1485 1482 1479 1477 1476 1473 1472 1470 1468 1468 1466 1465 1465 1464 1465 1465 1467 1465 1457 1455 1457 1458 1460 1460 1460 1463 1465 1466 1468 1469 1471 1473 1475 1477 1479 1480 1482 1483 1486 1488 1489 1489 1490 1491 1493 1494 1494 1493 1494 1498 1498 1496 1498 1492 1482 1479 1480 1482 1483 1479 1486 1493 1484 1477 1479 1480 1484 1486 1487 1491 1494 1497 1499 1501 1504 1507 1510 1512 1515
1507 1504 1501 1498 1495 1493 1490 1488 1485 1483 1480 1478 1476 1474 1472 1471 1469 1468 1466 1465 1465 1464 1464 1464 1463 1465 1464 1456 1453 1454 1454 1456 1456 1458 1460 1462 1464 1466 1468 1470 1472 1474 1477 1479 1481 1482 1484 1486 1488 1488 1489 1489 1490 1493 1497 1498 1496 1495 1498 1499 1496 1496 1493 1487 1480 1477 1478 1481 1481 1484 1487 1484 1479 1477 1478 1482 1485 1487 1489 1491 1495 1497 1499 1502 1505 1508 1510 1513
1506 1503 1500 1497 1494 1492 1489 1486 1484 1481 1479 1477 1474 1472 1471 1469 1468 1467 1465 1465 1464 1463 1464 1463 1463 1465 1460 1452 1451 1451 1451 1453 1454 1455 1456 1459 1462 1464 1466 1469 1470 1473 1475 1478 1481 1482 1483 1485 1487 1487 1488 1488 1488 1492 1500 1503 1499 1496 1497 1498 1495 1494 1494 1491 1484 1478 1476 1480 1483 1483 1482 1482 1480 1478 1479 1481 1483 1485 1487 1489 1492 1495 1497 1499 1502 1505 1507 1509
1505 1502 1499 1496 1493 1491 1488 1485 1483 1480 1477 1476 1473 1471 1469 1468 1467 1465 1464 1463 1463 1464 1464 1462 1464 1465 1454 1447 1449 1449 1449 1451 1451 1453 1454 1456 1458 1461 1464 1467 1468 1471 1475 1478 1479 1481 1483 1483 1485 1486 1486 1487 1487 1489 1496 1496 1492 1494 1497 1497 1495 1494 1493 1492 1487 1481 1478 1480 1482 1483 1483 1481 1479 1479 1480 1480 1482 1483 1484 1487 1490 1493 1496 1498 1500 1502 1504 1506
1504 1501 1498 1495 1492 1490 1487 1485 1482 1479 1476 1474 1473 1470 1468 1466 1465 1464 1462 1462 1462 1461 1460 1459 1458 1456 1448 1444 1447 1448 1448 1450 1450 1451 1452 1453 1455 1459 1462 1465 1466 1469 1473 1475 1477 1478 1480 1482 1484 1484 1482 1483 1483 1483 1486 1485 1485 1489 1492 1493 1494 1493 1490 1488 1486 1481 1480 1484 1483 1483 1483 1479 1478 1479 1479 1480 1482 1483 1485 1487 1489 1492 1494 1496 1498 1499 1501 1503
1503 1500 1497 1494 1491 1488 1486 1484 1481 1478 1475 1473 1472 1469 1468 1468 1465 1463 1461 1459 1458 1456 1453 1453 1452 1447 1444 1444 1446 1447 1447 1448 1449 1450 1451 1452 1453 1456 1460 1463 1465 1468 1468 1470 1474 1475 1477 1481 1480 1477 1476 1477 1479 1480 1481 1482 1483 1486 1489 1491 1491 1492 1489 1484 1484 1481 1479 1485 1483 1479 1479 1477 1476 1477 1476 1479 1482 1483 1485 1486 1487 1489 1491 1493 1494 1496 1497 1499
1503 1500 1496 1493 1490 1487 1486 1483 1480 1478 1475 1473 1472 1470 1472 1474 1472 1469 1463 1453 1449 1451 1449 1447 1448 1444 1441 1443 1444 1445 1447 1446 1446 1447 1449 1450 1451 1454 1457 1459 1462 1465 1464 1465 1470 1474 1476 1475 1470 1470 1472 1474 1478 1479 1481 1483 1484 1486 1488 1490 1490 1490 1487 1482 1483 1480 1478 1485 1483 1477 1479 1476 1474 1475 1474 1477 1480 1480 1480 1481 1483 1484 1487 1489 1490 1492 1495 1498
1502 1499 1495 1493 1490 1486 1485 1482 1479 1478 1476 1474 1473 1473 1475 1477 1477 1476 1472 1458 1444 1443 1444 1440 1441 1437 1434 1439 1441 1444 1448 1446 1443 1444 1446 1448 1449 1450 1452 1455 1457 1459 1461 1464 1468 1474 1475 1468 1463 1465 1469 1473 1477 1478 1481 1483 1484 1486 1486 1489 1489 1485 1484 1482 1481 1479 1478 1484 1483 1478 1480 1476 1471 1472 1472 1472 1474 1475 1475 1476 1478 1480 1483 1485 1486 1489 1492 1496
1501 1498 1495 1493 1489 1486 1484 1482 1480 1478 1476 1474 1473 1474 1475 1476 1476 1475 1476 1468 1446 1435 1435 1432 1432 1430 1428 1433 1436 1441 1445 1442 1440 1440 1442 1445 1445 1446 1448 1450 1453 1456 1460 1462 1462 1469 1471 1462 1458 1463 1468 1473 1477 1478 1480 1483 1483 1484 1484 1487 1485 1481 1485 1486 1482 1480 1479 1480 1481 1480 1480 1475 1472 1472 1471 1470 1471 1472 1474 1476 1477 1480 1481 1481 1483 1486 1489 1492
1501 1497 1495 1492 1489 1486 1484 1482 1480 1478 1476 1474 1474 1475 1475 1475 1475 1473 1473 1468 1450 1432 1426 1425 1426 1425 1424 1428 1432 1435 1437 1435 1436 1436 1437 1441 1442 1444 1445 1445 1450 1454 1456 1455 1456 1461 1461 1456 1455 1461 1467 1470 1475 1477 1479 1481 1482 1480 1479 1480 1479 1478 1483 1484 1482 1481 1478 1478 1477 1480 1484 1477 1471 1473 1470 1468 1471 1471 1473 1475 1476 1478 1479 1481 1483 1485 1488 1489
1500 1497 1494 1491 1488 1485 1483 1482 1479 1478 1476 1475 1476 1475 1475 1474 1472 1472 1470 1465 1451 1431 1422 1422 1423 1422 1421 1425 1428 1430 1432 1431 1428 1429 1433 1436 1438 1440 1442 1444 1447 1451 1451 1452 1456 1457 1456 1454 1455 1461 1465 1467 1472 1474 1474 1476 1478 1478 1475 1473 1475 1477 1481 1483 1484 1484 1486 1486 1477 1479 1492 1483 1469 1470 1469 1467 1470 1470 1470 1471 1472 1474 1476 1478 1481 1482 1484 1486
1499 1497 1494 1491 1488 1484 1483 1481 1478 1478 1477 1477 1477 1474 1474 1473 1471 1471 1469 1465 1450 1427 1419 1423 1422 1420 1420 1423 1425 1428 1433 1427 1420 1425 1431 1433 1435 1437 1441 1443 1443 1445 1446 1451 1456 1454 1452 1453 1455 1460 1463 1465 1469 1469 1468 1471 1477 1477 1471 1469 1474 1477 1480 1483 1484 1487 1492 1490 1478 1477 1492 1488 1473 1469 1467 1465 1468 1468 1468 1468 1468 1471 1472 1474 1476 1478 1480 1483
1499 1496 1493 1491 1488 1484 1482 1480 1479 1478 1476 1476 1475 1473 1473 1471 1471 1471 1467 1463 1444 1420 1417 1423 1422 1421 1420 1422 1424 1427 1430 1423 1417 1422 1425 1428 1433 1435 1438 1440 1440 1441 1441 1451 1459 1451 1446 1453 1457 1458 1461 1464 1465 1465 1464 1467 1474 1474 1466 1468 1475 1477 1480 1481 1483 1487 1486 1483 1480 1475 1483 1490 1480 1468 1462 1463 1468 1469 1467 1467 1465 1466 1468 1470 1472 1473 1476 1478
1498 1496 1493 1490 1488 1485 1483 1481 1479 1477 1477 1475 1473 1473 1471 1469 1470 1469 1468 1461 1434 1414 1417 1421 1421 1421 1420 1423 1423 1421 1421 1418 1418 1420 1420 1426 1430 1432 1435 1434 1436 1438 1437 1447 1454 1444 1441 1449 1452 1455 1460 1462 1459 1457 1459 1464 1470 1469 1464 1467 1471 1474 1477 1477 1481 1484 1481 1485 1487 1476 1478 1491 1481 1463 1460 1463 1467 1470 1466 1463 1462 1462 1464 1466 1468 1470 1472 1474
1497 1495 1492 1489 1487 1486 1484 1481 1478 1476 1476 1474 1472 1471 1468 1469 1469 1465 1470 1458 1423 1412 1420 1419 1420 1423 1422 1425 1424 1421 1419 1418 1419 1419 1419 1424 1426 1428 1431 1430 1432 1437 1437 1439 1443 1441 1441 1443 1444 1450 1457 1456 1453 1453 1455 1461 1465 1464 1463 1466 1470 1473 1474 1477 1480 1480 1484 1491 1489 1475 1475 1488 1479 1459 1460 1466 1465 1464 1460 1456 1457 1457 1460 1463 1464 1467 1469 1471
1496 1494 1492 1489 1486 1485 1483 1481 1479 1476 1475 1472 1471 1469 1466 1468 1466 1466 1472 1452 1418 1416 1422 1419 1422 1425 1424 1426 1424 1422 1421 1419 1418 1418 1420 1422 1424 1426 1427 1429 1432 1437 1440 1440 1440 1440 1439 1440 1442 1446 1449 1448 1449 1453 1454 1457 1460 1461 1465 1468 1472 1474 1475 1479 1479 1480 1492 1492 1480 1471 1471 1483 1480 1456 1450 1458 1455 1452 1453 1452 1453 1453 1456 1458 1459 1462 1465 1467
1495 1493 1491 1488 1486 1484 1481 1479 1478 1475 1474 1472 1469 1467 1466 1466 1465 1468 1463 1436 1419 1424 1423 1422 1427 1426 1426 1427 1423 1421 1419 1419 1417 1418 1421 1420 1423 1425 1425 1430 1434 1438 1444 1443 1441 1440 1440 1443 1443 1441 1442 1443 1448 1454 1455 1455 1457 1460 1465 1470 1477 1481 1480 1484 1484 1487 1497 1488 1471 1465 1467 1479 1480 1454 1440 1443 1441 1442 1446 1446 1448 1448 1449 1451 1454 1457 1459 1461
1494 1492 1490 1488 1486 1484 1482 1479 1476 1474 1473 1470 1468 1466 1465 1466 1467 1463 1446 1426 1429 1436 1430 1430 1431 1427 1428 1427 1423 1420 1417 1417 1416 1416 1418 1418 1420 1420 1419 1422 1426 1437 1445 1441 1441 1442 1440 1440 1440 1439 1439 1439 1447 1454 1457 1458 1457 1460 1464 1469 1483 1491 1493 1495 1493 1490 1490 1480 1467 1462 1467 1473 1465 1446 1438 1438 1437 1437 1437 1437 1439 1441 1442 1444 1447 1450 1453 1456
1493 1491 1488 1487 1485 1484 1482 1479 1476 1474 1472 1470 1468 1464 1465 1469 1464 1452 1441 1437 1442 1444 1439 1436 1433 1430 1430 1426 1422 1419 1416 1416 1415 1414 1415 1415 1418 1418 1417 1416 1416 1426 1434 1433 1439 1445 1445 1442 1438 1439 1438 1435 1440 1447 1454 1457 1456 1458 1459 1466 1478 1489 1498 1500 1493 1488 1484 1476 1465 1462 1469 1469 1453 1439 1434 1433 1433 1432 1431 1432 1433 1434 1436 1438 1440 1443 1447 1450
1492 1489 1487 1485 1484 1483 1481 1479 1476 1473 1472 1470 1468 1465 1468 1469 1458 1447 1449 1452 1450 1447 1444 1440 1435 1430 1426 1423 1422 1418 1417 1418 1415 1415 1415 1415 1419 1419 1417 1417 1415 1418 1424 1430 1436 1439 1447 1446 1434 1433 1433 1430 1434 1437 1441 1448 1452 1454 1452 1458 1466 1470 1480 1486 1482 1483 1480 1472 1469 1469 1469 1461 1448 1438 1426 1423 1425 1425 1426 1428 1429 1430 1431 1433 1435 1439 1443 1446
1491 1489 1486 1484 1484 1482 1480 1479 1476 1473 1472 1470 1468 1469 1469 1465 1457 1454 1458 1458 1454 1452 1446 1440 1436 1431 1423 1421 1423 1420 1419 1419 1415 1415 1415 1414 1417 1417 1415 1416 1416 1417 1422 1430 1433 1431 1438 1435 1421 1421 1424 1424 1431 1432 1432 1442 1452 1452 1448 1456 1461 1454 1458 1468 1470 1469 1470 1471 1473 1472 1460 1442 1436 1432 1423 1421 1423 1420 1423 1424 1425 1428 1427 1430 1434 1436 1438 1440
1490 1487 1486 1484 1483 1481 1478 1477 1475 1473 1472 1471 1470 1471 1468 1464 1462 1463 1464 1461 1460 1458 1451 1440 1433 1431 1428 1425 1425 1424 1421 1420 1417 1415 1414 1414 1416 1418 1417 1415 1414 1415 1417 1422 1425 1427 1435 1430 1417 1420 1424 1421 1425 1427 1428 1437 1446 1449 1451 1453 1449 1443 1450 1463 1469 1467 1469 1475 1469 1461 1452 1438 1435 1431 1421 1422 1425 1422 1423 1423 1423 1424 1424 1427 1431 1431 1433 1435
1488 1485 1485 1484 1481 1479 1477 1475 1474 1473 1472 1472 1472 1470 1468 1466 1466 1466 1466 1463 1462 1460 1457 1450 1438 1435 1438 1435 1432 1430 1425 1421 1418 1416 1415 1416 1421 1426 1425 1420 1416 1416 1416 1418 1417 1417 1425 1426 1417 1418 1424 1421 1419 1424 1427 1428 1433 1444 1449 1443 1440 1447 1452 1458 1470 1472 1474 1476 1464 1454 1451 1443 1442 1437 1422 1421 1426 1424 1422 1421 1420 1421 1421 1424 1425 1426 1428 1429
1488 1485 1484 1483 1481 1478 1476 1474 1472 1472 1471 1472 1472 1470 1469 1468 1467 1467 1466 1464 1463 1460 1459 1458 1447 1441 1446 1444 1439 1436 1431 1425 1422 1421 1419 1419 1425 1431 1430 1426 1421 1418 1418 1420 1417 1413 1417 1425 1420 1414 1419 1420 1418 1425 1431 1429 1427 1433 1436 1432 1438 1455 1459 1459 1469 1471 1472 1475 1465 1456 1452 1441 1436 1432 1423 1423 1425 1422 1420 1419 1418 1417 1418 1419 1419 1421 1423 1425
1489 1486 1484 1483 1481 1478 1476 1475 1473 1472 1471 1472 1473 1471 1470 1470 1468 1467 1467 1465 1463 1461 1459 1457 1452 1448 1449 1447 1443 1440 1436 1432 1429 1426 1425 1424 1428 1431 1431 1430 1425 1419 1418 1418 1416 1413 1414 1424 1424 1413 1412 1418 1420 1425 1431 1431 1430 1429 1431 1431 1434 1443 1448 1452 1457 1456 1462 1469 1464 1459 1454 1437 1423 1419 1419 1421 1419 1417 1418 1417 1416 1414 1412 1413 1414 1415 1418 1421
1490 1487 1485 1483 1481 1478 1477 1475 1474 1473 1473 1474 1475 1474 1473 1472 1469 1467 1468 1466 1464 1462 1459 1456 1455 1453 1450 1447 1445 1441 1438 1436 1433 1430 1428 1428 1430 1431 1431 1432 1427 1421 1417 1414 1413 1412 1412 1420 1425 1418 1414 1418 1420 1420 1421 1423 1427 1430 1432 1434 1435 1436 1439 1444 1446 1444 1450 1460 1462 1462 1453 1429 1412 1410 1412 1414 1413 1412 1413 1413 1412 1410 1408 1408 1409 1410 1412 1414
1491 1489 1487 1484 1481 1479 1478 1476 1477 1477 1476 1476 1477 1477 1475 1472 1470 1468 1467 1466 1464 1462 1459 1456 1455 1454 1450 1448 1445 1442 1439 1437 1434 1432 1430 1430 1433 1433 1431 1432 1430 1424 1418 1414 1415 1416 1415 1417 1420 1419 1418 1418 1416 1411 1409 1411 1415 1420 1424 1426 1429 1433 1438 1448 1451 1441 1439 1446 1450 1454 1448 1423 1405 1405 1405 1406 1408 1406 1406 1407 1407 1405 1405 1405 1405 1406 1407 1409
1493 1491 1488 1485 1482 1480 1479 1479 1480 1480 1480 1480 1480 1479 1477 1474 1471 1469 1467 1466 1464 1461 1459 1456 1454 1452 1450 1449 1445 1442 1441 1438 1434 1432 1430 1432 1436 1436 1434 1432 1430 1425 1420 1419 1420 1421 1420 1420 1419 1417 1414 1412 1410 1406 1405 1405 1406 1409 1414 1416 1419 1425 1430 1442 1447 1439 1437 1441 1438 1444 1446 1422 1400 1400 1402 1401 1401 1401 1401 1403 1403 1402 1402 1402 1402 1403 1404 1406
1496 1493 1489 1486 1484 1482 1480 1481 1482 1482 1482 1482 1481 1480 1477 1475 1473 1470 1468 1467 1465 1462 1460 1457 1455 1453 1451 1451 1448 1445 1442 1439 1435 1433 1434 1435 1437 1437 1435 1433 1430 1425 1422 1423 1423 1421 1422 1422 1422 1420 1415 1409 1407 1405 1404 1405 1407 1410 1410 1410 1413 1418 1419 1423 1429 1431 1435 1438 1438 1447 1448 1424 1401 1397 1399 1398 1399 1399 1400 1400 1401 1401 1400 1400 1401 1401 1404 1406
1496 1494 1490 1487 1485 1483 1483 1486 1487 1486 1484 1483 1481 1479 1477 1475 1474 1472 1470 1468 1467 1466 1463 1459 1457 1456 1455 1453 1450 1446 1444 1442 1439 1436 1437 1438 1438 1438 1435 1433 1431 1428 1426 1428 1427 1424 1424 1423 1422 1425 1427 1425 1420 1416 1412 1409 1410 1410 1409 1408 1409 1411 1414 1417 1422 1430 1433 1429 1430 1441 1439 1418 1403 1400 1399 1399 1400 1400 1399 1399 1399 1399 1398 1399 1400 1401 1404 1406
1496 1494 1490 1489 1488 1486 1487 1490 1491 1489 1487 1485 1482 1479 1478 1476 1475 1474 1471 1469 1469 1468 1466 1462 1459 1458 1456 1454 1450 1447 1446 1445 1442 1440 1440 1440 1440 1439 1436 1434 1433 1431 1429 1429 1427 1425 1426 1425 1423 1424 1428 1430 1428 1424 1418 1412 1410 1408 1406 1406 1406 1407 1411 1414 1421 1431 1433 1424 1420 1425 1423 1412 1403 1402 1402 1402 1402 1401 1398 1396 1397 1398 1397 1397 1398 1400 1402 1404
1499 1496 1493 1490 1489 1489 1490 1492 1492 1491 1489 1488 1485 1481 1480 1478 1475 1474 1472 1470 1469 1468 1467 1464 1461 1459 1458 1455 1453 1450 1448 1446 1445 1443 1443 1443 1442 1440 1438 1436 1434 1433 1432 1430 1426 1425 1426 1426 1425 1425 1424 1424 1425 1424 1418 1415 1415 1411 1406 1405 1404 1404 1406 1409 1416 1421 1422 1423 1419 1412 1411 1412 1406 1403 1403 1402 1402 1402 1398 1395 1395 1396 1396 1396 1396 1398 1399 1401
1501 1499 1497 1495 1493 1491 1491 1491 1492 1491 1490 1490 1488 1484 1482 1479 1476 1474 1473 1471 1470 1469 1467 1465 1463 1463 1462 1461 1458 1455 1451 1448 1446 1446 1446 1445 1443 1441 1438 1436 1435 1434 1432 1430 1427 1426 1428 1427 1426 1427 1427 1425 1424 1421 1417 1418 1419 1415 1410 1405 1402 1402 1402 1405 1409 1408 1410 1422 1419 1405 1407 1414 1409 1403 1403 1401 1400 1400 1397 1395 1394 1394 1394 1396 1396 1396 1398 1399
1502 1501 1500 1499 1498 1495 1494 1493 1492 1492 1490 1489 1488 1485 1482 1480 1479 1477 1475 1472 1471 1470 1468 1467 1467 1467 1467 1466 1464 1460 1455 1452 1450 1449 1449 1447 1445 1443 1439 1436 1436 1435 1434 1432 1430 1429 1431 1430 1427 1427 1428 1425 1421 1417 1415 1416 1417 1414 1410 1406 1401 1400 1400 1400 1403 1402 1405 1413 1410 1403 1408 1412 1406 1402 1401 1398 1397 1396 1394 1393 1392 1392 1393 1394 1395 1396 1397 1397
1503 1502 1501 1500 1500 1498 1497 1496 1494 1491 1490 1488 1486 1484 1483 1481 1480 1479 1477 1475 1473 1470 1470 1471 1470 1470 1469 1468 1468 1465 1461 1458 1456 1454 1454 1452 1450 1447 1443 1439 1437 1436 1435 1434 1433 1433 1433 1431 1429 1430 1429 1424 1419 1415 1413 1414 1415 1412 1409 1405 1401 1400 1398 1399 1400 1399 1401 1403 1400 1402 1407 1404 1398 1397 1395 1394 1394 1393 1393 1393 1392 1391 1391 1392 1394 1394 1395 1395
1504 1503 1501 1500 1499 1498 1496 1495 1494 1491 1489 1488 1486 1484 1483 1483 1481 1479 1477 1477 1475 1471 1471 1473 1472 1470 1469 1468 1468 1467 1463 1461 1461 1459 1457 1456 1454 1450 1447 1444 1440 1439 1439 1437 1436 1436 1434 1433 1431 1430 1429 1424 1417 1414 1413 1413 1413 1412 1407 1402 1400 1400 1399 1399 1398 1397 1399 1400 1397 1400 1405 1400 1392 1389 1389 1390 1392 1393 1394 1393 1391 1389 1389 1390 1391 1391 1392 1392
1504 1503 1502 1501 1498 1496 1495 1494 1493 1492 1489 1487 1487 1485 1484 1483 1481 1480 1477 1475 1474 1473 1473 1474 1472 1470 1468 1467 1466 1465 1462 1461 1461 1459 1458 1458 1456 1453 1451 1447 1445 1445 1443 1441 1440 1438 1436 1435 1431 1431 1432 1425 1416 1417 1416 1411 1409 1407 1402 1398 1397 1398 1397 1396 1395 1393 1395 1398 1398 1400 1402 1396 1389 1388 1389 1389 1390 1392 1392 1391 1389 1388 1387 1388 1388 1389 1389 1389
1503 1502 1501 1501 1498 1495 1494 1493 1492 1492 1489 1487 1487 1486 1485 1483 1480 1481 1479 1474 1472 1474 1474 1473 1472 1470 1468 1466 1465 1463 1460 1459 1458 1458 1458 1457 1455 1453 1452 1449 1448 1448 1447 1444 1443 1440 1438 1437 1434 1434 1435 1427 1417 1418 1418 1414 1413 1405 1393 1389 1390 1390 1391 1391 1390 1389 1389 1391 1394 1395 1392 1387 1385 1387 1389 1389 1388 1388 1387 1386 1387 1387 1387 1388 1388 1387 1388 1388